[[{"header":{"parameterUnit":"m.s-1","parameterCategory":1,"la1":30.2991,"la2":30.254,"lo1":-89.0895,"lo2":-89.0444,"dy":0.0017,"dx":0.0017,"nx":28,"ny":28,"refTime":"2026-02-04T03:00:00:Z","depth":0,"parameterNumber":2,"parameterNumberName":"U-component_of_WINDS"},"data":[0,0,0,0,0,0,0,0,0,0,0,0,0,0,0,0,0,0,0,0,0,0,0,0,0,0,0,0,0,0,0,0,0,0,0,0,0,0,0,0,0,0,0,0,0,0,0,0,0,0,0,0,0,0,0,0,0,0,2.917,2.917,0,2.9232,2.9232,2.9233,2.9227,2.9226,2.9225,2.9224,2.9288,2.9291,2.9293,0,0,0,0,0,0,0,0,0,0,0,0,0,2.905,2.9052,2.917,2.917,2.9171,2.9231,2.9232,2.9233,2.9227,2.9226,2.9225,2.9224,2.9287,2.929,2.9293,0,0,0,0,0,0,0,0,0,0,0,0,0,2.9106,2.9053,2.917,2.9176,2.9177,2.9231,2.9232,2.9233,2.9228,2.9226,2.9225,2.9223,2.9286,2.929,2.9294,2.9347,0,0,2.9306,2.9307,0,0,0,0,0,0,0,0,2.9102,2.911,2.9174,2.9175,2.9177,2.922,2.9213,2.9271,2.9228,2.9208,2.9224,2.9223,2.9267,2.9272,2.9287,2.935,2.9352,2.9306,2.9308,2.931,2.9311,0,0,0,0,0,0,0,2.9099,2.9107,2.9194,2.9175,2.9177,2.9176,2.9183,2.9224,2.9245,2.921,2.921,2.9217,2.9267,2.9283,2.9288,2.9353,2.9306,2.9309,2.9312,2.9313,2.9466,2.9468,0,0,0,0,0,0,2.9093,2.9104,2.9192,2.9196,2.9135,2.918,2.9187,2.9208,2.9244,2.9248,2.9218,2.9216,2.9277,2.9284,2.9291,2.9357,2.931,2.9314,2.9316,2.9465,2.9467,2.9469,0,0,0,0,0,0,2.909,2.9101,2.919,2.915,2.9161,2.9183,2.9207,2.921,2.9225,2.9251,2.9254,2.923,2.9276,2.9285,2.9334,2.9359,2.9315,2.9319,2.9463,2.9465,2.9468,2.9489,0,0,0,0,0,0,2.9087,2.91,2.9119,2.9151,2.9163,2.9231,2.9208,2.9212,2.9232,2.9231,2.9263,2.9267,2.9276,2.9328,2.9337,2.9364,2.9322,2.946,2.9464,2.9467,2.9486,2.9492,2.9497,0,0,0,0,0,2.9083,2.9122,2.912,2.9131,2.9188,2.9232,2.9239,2.9249,2.9234,2.9255,2.9271,2.9266,2.9355,2.9333,2.9344,2.9371,2.9459,2.9463,2.9467,2.9483,2.949,2.9497,0,0,0,0,0,0,2.9092,2.9126,2.9124,2.9175,2.9201,2.9231,2.9256,2.9255,2.9286,2.9283,2.9293,2.9301,2.935,2.9366,2.934,2.9426,2.9405,2.9411,2.9414,2.9421,2.9426,2.9422,2.9325,0,0,0,0,0,2.91,2.9133,2.9161,2.9202,2.9216,2.9234,2.9254,2.9259,2.9286,2.9297,2.9317,2.9344,2.9379,2.9401,2.9433,2.9489,2.9497,2.9513,2.9519,2.9523,2.9528,2.9562,2.957,2.9482,2.9482,2.9481,0,0,2.9117,2.9139,2.9159,2.9205,2.9226,2.926,2.9243,2.928,2.9306,2.9302,2.935,2.9366,2.9397,2.945,2.9474,2.9464,2.9555,2.9528,2.9531,2.9534,2.9566,2.9575,2.9582,2.9484,2.9484,2.9483,0,0,2.9165,2.9184,2.9223,2.9245,2.9277,2.9289,2.9299,2.933,2.9341,2.9389,2.9388,2.942,2.9478,2.9502,2.9521,2.9583,2.958,2.9593,2.9621,2.9654,2.9661,2.9667,2.9691,2.9699,2.9598,2.9598,2.9599,0,2.9181,2.9233,2.9242,2.928,2.9302,2.9302,2.9342,2.9362,2.9404,2.9419,2.9408,2.9483,2.9504,2.9564,2.9579,2.9594,2.9607,2.9589,2.9659,2.9665,2.9671,2.9694,2.9703,2.96,2.96,2.96,2.9599,0,2.9253,2.9289,2.9316,2.9357,2.9381,2.942,2.9437,2.9461,2.9466,2.948,2.9531,2.9557,2.9596,2.9611,2.9614,2.9672,2.9665,2.9656,2.9635,2.9681,2.9703,2.9711,2.9602,2.9602,2.9601,2.9601,0,0,2.9305,2.9354,2.9364,2.9384,2.9421,2.945,2.949,2.9529,2.9551,2.958,2.9615,2.9667,2.966,2.9682,2.9689,2.9717,2.9767,2.9705,2.9706,2.9717,2.9835,2.9842,2.9852,2.9766,2.9768,2.9769,2.9833,0,2.9358,2.9429,2.9441,2.9503,2.9538,2.954,2.9576,2.9603,2.9619,2.9652,2.9669,2.9706,2.9693,2.9707,2.9736,2.9755,2.9791,2.9751,2.98,2.9802,2.9792,2.9863,2.9869,2.9928,2.9842,2.9843,2.9844,0,2.9428,2.9461,2.9527,2.9563,2.9578,2.9609,2.9648,2.9679,2.9712,2.9721,2.9748,2.9753,2.9797,2.9775,2.9837,2.9809,2.983,2.9844,2.9846,2.9851,2.9825,2.9871,2.9947,2.9956,2.9857,2.9856,2.9855,0,2.9462,2.9523,2.9571,2.9588,2.963,2.9653,2.9671,2.9703,2.9727,2.9761,2.9777,2.9816,2.9838,2.9868,2.9884,2.9867,2.9946,2.9925,2.9957,2.9957,2.9973,2.9971,3.0054,2.9986,2.9986,2.9986,2.9985,0,2.952,2.956,2.9587,2.9616,2.9663,2.9678,2.9724,2.9743,2.9771,2.9806,2.9811,2.9843,2.9862,2.9898,2.9911,2.9962,2.9971,2.9981,2.9984,2.9981,2.998,2.9995,2.9992,2.9988,2.9988,2.9987,2.9987,0,2.9565,2.9584,2.9637,2.9674,2.9684,2.9717,2.975,2.978,2.9796,2.984,2.9852,2.9878,2.9921,2.9941,2.9993,3.0003,3.0061,3.0061,3.005,3.0051,3.0082,3.008,3.0178,3.0193,3.0114,3.0115,3.0115,0,2.96,2.9632,2.9673,2.9697,2.9717,2.9754,2.9779,2.9796,2.9823,2.9865,2.989,2.9933,2.9969,3.0038,3.0063,3.0104,3.0106,3.0138,3.0112,3.0109,3.0108,3.0106,3.011,3.0142,3.0143,3.0143,3.0144,0,2.9662,2.9671,2.9706,2.9747,2.9777,2.9809,2.9841,2.9861,2.9883,2.9913,2.9957,2.9985,3.004,3.0084,3.0128,3.0149,3.0151,3.0152,3.0162,3.0159,3.0152,3.0158,3.0063,3.0149,3.0149,3.0148,3.0148,3.0148,2.9704,2.9733,2.9768,2.9808,2.9835,2.9865,2.9896,2.9918,2.9955,3.0001,3.001,3.0058,3.0094,3.0153,3.0176,3.0215,3.0207,3.0221,3.0224,3.0228,3.023,3.0146,3.0222,3.0222,3.0222,3.0222,3.0222,0,2.9767,2.979,2.9827,2.9873,2.9905,2.9905,2.9942,2.9969,3.0012,3.0044,3.008,3.0133,3.0177,3.0206,3.0251,3.0277,3.0279,3.0288,3.0286,3.0292,3.0234,3.0221,3.0286,3.0286,3.0286,3.0286,3.0286,3.0285,2.9803,2.9854,2.9867,2.9932,2.9955,3.0002,3.0024,3.0053,3.008,3.0138,3.0175,3.0194,3.0227,3.0275,3.0315,3.0323,3.034,3.0349,3.0357,3.0302,3.0295,3.0289,3.0277,3.0353,3.0353,3.0412,3.0413,3.0413]},{"header":{"parameterUnit":"m.s-1","parameterCategory":1,"la1":30.2991,"la2":30.254,"lo1":-89.0895,"lo2":-89.0444,"dy":0.0017,"dx":0.0017,"nx":28,"ny":28,"refTime":"2026-02-04T03:00:00:Z","depth":0,"parameterNumber":3,"parameterNumberName":"V-component_of_WINDS"},"data":[0,0,0,0,0,0,0,0,0,0,0,0,0,0,0,0,0,0,0,0,0,0,0,0,0,0,0,0,0,0,0,0,0,0,0,0,0,0,0,0,0,0,0,0,0,0,0,0,0,0,0,0,0,0,0,0,0,0,-5.7161,-5.7163,0,-5.7262,-5.7263,-5.7264,-5.7286,-5.7285,-5.7284,-5.7283,-5.7381,-5.7384,-5.7387,0,0,0,0,0,0,0,0,0,0,0,0,0,-5.6986,-5.6989,-5.7161,-5.7163,-5.7164,-5.7262,-5.7263,-5.7264,-5.7286,-5.7285,-5.7284,-5.7283,-5.738,-5.7384,-5.7388,0,0,0,0,0,0,0,0,0,0,0,0,0,-5.7072,-5.699,-5.7161,-5.7186,-5.719,-5.7261,-5.7263,-5.7265,-5.7286,-5.7285,-5.7284,-5.7283,-5.7379,-5.7383,-5.7388,-5.744,0,0,-5.7403,-5.7405,0,0,0,0,0,0,0,0,-5.7067,-5.7078,-5.7181,-5.7185,-5.7189,-5.726,-5.7237,-5.7323,-5.7286,-5.7249,-5.7283,-5.7282,-5.7341,-5.7349,-5.737,-5.7445,-5.7449,-5.7404,-5.7407,-5.7409,-5.741,0,0,0,0,0,0,0,-5.7061,-5.7074,-5.7201,-5.7183,-5.7187,-5.7192,-5.7203,-5.7254,-5.73,-5.7252,-5.7254,-5.7266,-5.7343,-5.7365,-5.7373,-5.745,-5.7404,-5.7408,-5.7411,-5.7413,-5.7576,-5.7578,0,0,0,0,0,0,-5.7051,-5.7069,-5.7198,-5.7204,-5.7124,-5.7196,-5.7209,-5.7238,-5.73,-5.7308,-5.7267,-5.7267,-5.7358,-5.7367,-5.7376,-5.7444,-5.7409,-5.7413,-5.7416,-5.7575,-5.7577,-5.7578,0,0,0,0,0,0,-5.7047,-5.7062,-5.7194,-5.7137,-5.7154,-5.72,-5.7234,-5.7241,-5.7263,-5.7311,-5.7319,-5.7282,-5.7357,-5.7369,-5.7425,-5.7447,-5.7415,-5.742,-5.7573,-5.7576,-5.7578,-5.7577,0,0,0,0,0,0,-5.7042,-5.7061,-5.7081,-5.7138,-5.7157,-5.7242,-5.7235,-5.7244,-5.7272,-5.7273,-5.7326,-5.7334,-5.7357,-5.7418,-5.743,-5.7453,-5.7424,-5.7572,-5.7574,-5.7577,-5.7575,-5.7579,-5.7582,0,0,0,0,0,-5.7036,-5.7075,-5.7082,-5.7097,-5.7184,-5.7243,-5.7254,-5.7281,-5.7274,-5.7295,-5.7326,-5.7332,-5.7443,-5.7424,-5.7438,-5.7462,-5.757,-5.7574,-5.7577,-5.7574,-5.7578,-5.7582,0,0,0,0,0,0,-5.7017,-5.7083,-5.7091,-5.715,-5.7191,-5.7246,-5.7273,-5.7285,-5.7327,-5.7326,-5.7356,-5.7368,-5.7423,-5.7448,-5.7425,-5.7518,-5.7506,-5.7512,-5.7499,-5.7504,-5.7507,-5.75,-5.7428,0,0,0,0,0,-5.702,-5.7064,-5.7118,-5.7165,-5.7186,-5.7226,-5.7253,-5.7271,-5.7314,-5.7331,-5.7366,-5.7406,-5.745,-5.7478,-5.7521,-5.7579,-5.7592,-5.7604,-5.7607,-5.7609,-5.7614,-5.765,-5.7656,-5.7589,-5.7589,-5.7589,0,0,-5.7026,-5.7067,-5.7092,-5.7162,-5.7196,-5.7241,-5.724,-5.7286,-5.7319,-5.7337,-5.7393,-5.7421,-5.7468,-5.7526,-5.7553,-5.7549,-5.7636,-5.7613,-5.7615,-5.7619,-5.7654,-5.766,-5.7665,-5.7591,-5.759,-5.759,0,0,-5.706,-5.7095,-5.7139,-5.7175,-5.7228,-5.7255,-5.7266,-5.7321,-5.7341,-5.7398,-5.7414,-5.7453,-5.7528,-5.7562,-5.7589,-5.7641,-5.7649,-5.7654,-5.7671,-5.7705,-5.7711,-5.7716,-5.7736,-5.7742,-5.7659,-5.7659,-5.7659,0,-5.706,-5.7128,-5.716,-5.7207,-5.7238,-5.726,-5.7305,-5.7337,-5.74,-5.7421,-5.7416,-5.7514,-5.7546,-5.7614,-5.7628,-5.7648,-5.7662,-5.7648,-5.7708,-5.7713,-5.7718,-5.7737,-5.7745,-5.7659,-5.7659,-5.7659,-5.7659,0,-5.7127,-5.7175,-5.7204,-5.7268,-5.7303,-5.7348,-5.7387,-5.7418,-5.7435,-5.7463,-5.7523,-5.7564,-5.7617,-5.7635,-5.7649,-5.7706,-5.7702,-5.7702,-5.7691,-5.7724,-5.7743,-5.7751,-5.766,-5.766,-5.766,-5.766,0,0,-5.7148,-5.7233,-5.7244,-5.7275,-5.7337,-5.7374,-5.7422,-5.7477,-5.7503,-5.7547,-5.7589,-5.7654,-5.7656,-5.7687,-5.7706,-5.7736,-5.7777,-5.7733,-5.7734,-5.774,-5.7845,-5.7845,-5.7853,-5.7784,-5.7785,-5.7787,-5.7841,0,-5.719,-5.7278,-5.731,-5.7382,-5.7428,-5.7451,-5.7493,-5.7536,-5.7564,-5.7607,-5.7638,-5.7685,-5.7682,-5.7702,-5.7733,-5.7766,-5.7799,-5.7762,-5.7822,-5.7824,-5.781,-5.7862,-5.7862,-5.7911,-5.7849,-5.785,-5.7851,0,-5.725,-5.7299,-5.7376,-5.7437,-5.7457,-5.7494,-5.7549,-5.759,-5.7639,-5.7658,-5.7695,-5.7714,-5.7765,-5.7752,-5.7824,-5.7799,-5.7826,-5.7846,-5.7849,-5.7855,-5.7839,-5.7871,-5.7927,-5.7935,-5.7862,-5.7861,-5.7861,0,-5.726,-5.7345,-5.7403,-5.7429,-5.75,-5.7526,-5.7557,-5.7606,-5.7638,-5.7686,-5.7707,-5.7759,-5.7788,-5.7828,-5.786,-5.7847,-5.793,-5.7919,-5.7947,-5.7947,-5.7963,-5.7961,-5.8025,-5.7979,-5.7979,-5.7979,-5.7979,0,-5.7304,-5.735,-5.7409,-5.7444,-5.7498,-5.7536,-5.7587,-5.7619,-5.7664,-5.7706,-5.7729,-5.7768,-5.7808,-5.7853,-5.7878,-5.7935,-5.7947,-5.7964,-5.797,-5.7962,-5.796,-5.798,-5.7977,-5.7981,-5.7981,-5.798,-5.798,0,-5.7323,-5.7364,-5.7429,-5.7493,-5.7511,-5.7548,-5.7602,-5.7638,-5.767,-5.7723,-5.7738,-5.7786,-5.7841,-5.7878,-5.7945,-5.7963,-5.8025,-5.803,-5.8009,-5.8012,-5.8039,-5.8036,-5.8117,-5.8131,-5.8076,-5.8076,-5.8077,0,-5.7348,-5.7385,-5.7455,-5.7487,-5.7518,-5.7568,-5.7602,-5.7641,-5.7676,-5.7738,-5.7767,-5.7823,-5.787,-5.7956,-5.7996,-5.805,-5.8057,-5.8082,-5.8064,-5.8057,-5.8059,-5.8056,-5.8061,-5.8084,-5.8084,-5.8085,-5.8085,0,-5.7389,-5.7409,-5.7458,-5.7517,-5.7558,-5.7605,-5.7652,-5.7676,-5.7723,-5.7761,-5.7819,-5.7856,-5.7928,-5.7984,-5.8042,-5.8073,-5.8087,-5.8091,-5.81,-5.8092,-5.8079,-5.8088,-5.8017,-5.8088,-5.8088,-5.8087,-5.8087,-5.8087,-5.7413,-5.7448,-5.7504,-5.756,-5.76,-5.7645,-5.7683,-5.7721,-5.777,-5.7834,-5.7854,-5.7914,-5.7966,-5.8046,-5.8078,-5.8126,-5.8123,-5.8136,-5.814,-5.8143,-5.8144,-5.8072,-5.8136,-5.8136,-5.8136,-5.8136,-5.8136,0,-5.7456,-5.7494,-5.7546,-5.7613,-5.7657,-5.767,-5.7724,-5.776,-5.7813,-5.7861,-5.7909,-5.7976,-5.8032,-5.8079,-5.8137,-5.8166,-5.8174,-5.818,-5.8178,-5.8185,-5.8142,-5.8128,-5.8172,-5.8172,-5.8172,-5.8172,-5.8172,-5.8172,-5.7484,-5.7546,-5.7573,-5.7656,-5.7693,-5.7755,-5.7785,-5.7826,-5.7866,-5.7941,-5.7989,-5.802,-5.8068,-5.8131,-5.8183,-5.8195,-5.8215,-5.822,-5.8234,-5.8192,-5.8188,-5.8184,-5.8171,-5.8224,-5.8224,-5.8274,-5.8274,-5.8274]}]]